Regional Weather Roundup
Issued by NWS

Home | Current Version | Previous Version | Text Only | Print | Product List | Glossary On
Versions: 1 2 3 4 5 6 7 8 9 10 11 12 13 14 15 16 17 18 19 20 21 22 23 24 25 26 27 28 29 30 31 32 33 34 35 36 37 38 39 40 41 42 43 44 45 46 47 48 49 50
000
ASUS44 KOUN 262210
RWROK

WEATHER ROUNDUP FOR OKLAHOMA
NATIONAL WEATHER SERVICE NORMAN OK
400 PM CST SUN FEB 26 2017

NOTE: "FAIR" INDICATES FEW OR NO CLOUDS BELOW 12,000 FEET WITH NO
      SIGNIFICANT WEATHER AND/OR OBSTRUCTIONS TO VISIBILITY.

OKZ001>007-009>012-014-015-017-262300-
NORTHWEST OKLAHOMA AND THE PANHANDLE

CITY           SKY/WX    TMP DP  RH WIND       PRES   REMARKS
GAGE           SUNNY     57  14  18 E6        29.85S
GUYMON         SUNNY     53   5  14 SE7       29.82F
ENID/WOODRING  MOSUNNY   55  32  41 NE7       29.87F
$$

OKZ016-021>023-033>039-044-045-262300-
SOUTHWEST OKLAHOMA

CITY           SKY/WX    TMP DP  RH WIND       PRES   REMARKS
LAWTON/REGL    SUNNY     61  36  39 S3        29.83F
LAWTON/FT SILL PTSUNNY   61  37  41 S9        29.82F
FREDERICK      SUNNY     61  35  37 NW5       29.81S
CLINTON        MOSUNNY   57  30  35 E6        29.86R
HOBART         CLOUDY    57  35  43 S5        29.85R
ALTUS AFB      PTSUNNY   58  32  37 SE5       29.84S
$$

OKZ018>020-024>031-262300-
CENTRAL OKLAHOMA

CITY           SKY/WX    TMP DP  RH WIND       PRES   REMARKS
OKLAHOMA CITY  PTSUNNY   58  33  39 VRB3      29.85F
OKC/WILEY POST MOSUNNY   57  34  41 SW7       29.86F
OKC/TINKER AFB MOSUNNY   57  32  39 S8        29.84F
STILLWATER     MOSUNNY   57  29  34 CALM      29.87S
GUTHRIE        MOSUNNY   56  32  40 VRB3      29.87S
$$

OKZ008-013-054>072-262300-
NORTHEAST OKLAHOMA

CITY           SKY/WX    TMP DP  RH WIND       PRES   REMARKS
TULSA          CLOUDY    59  33  37 VRB7      29.87S
TULSA/JONES    MOSUNNY   59  32  36 S8        29.89R
PONCA CITY     SUNNY     55  28  35 CALM      29.88F
BARTLESVILLE   CLOUDY    55  27  34 E6        29.92F
MUSKOGEE       CLOUDY    58  38  47 S13       29.92S
$$

OKZ032-040>043-046>053-073>077-262300-
SOUTH CENTRAL/SOUTHEAST OKLAHOMA

CITY           SKY/WX    TMP DP  RH WIND       PRES   REMARKS
ARDMORE/DWNTWN CLOUDY    63  45  51 S8G16     29.85F
MCALESTER      CLOUDY    57  35  43 S8G17     29.91F
$$





USA.gov is the U.S. government's official web portal to all federal, state and local government web resources and services.